This is the latest recevied weather packets stored in our database for station/object K2YYD-2. If no packets are shown the sender has not sent any weather packets the latest 1 day(s).
| Time | Temp. | Humidity | Pressure | Rain* | Wind** | Luminosity | Snow |
|---|---|---|---|---|---|---|---|
| 1778013695 | 20° C | 63% | 1005.5 hPa | 0 mm | - | 488 W/m² | - |
| 1778013574 | 20° C | 62% | 1005.4 hPa | 0 mm | - | 378 W/m² | - |
| 1778013454 | 20° C | 62% | 1005.4 hPa | 0 mm | - | 327 W/m² | - |
| 1778013335 | 20° C | 63% | 1005.5 hPa | 0 mm | - | 377 W/m² | - |
| 1778013095 | 20° C | 63% | 1005.4 hPa | 0 mm | - | 400 W/m² | - |
| 1778012975 | 20° C | 63% | 1005.4 hPa | 0 mm | - | 357 W/m² | - |
| 1778012132 | 20.56° C | 62% | 1005.6 hPa | 0 mm | - | 396 W/m² | - |
| 1778011889 | 20.56° C | 62% | 1005.6 hPa | 0 mm | - | 325 W/m² | - |
| 1778011769 | 21.11° C | 60% | 1005.7 hPa | 0 mm | - | 469 W/m² | - |
| 1778011646 | 21.11° C | 60% | 1005.6 hPa | 0 mm | - | 351 W/m² | - |
| 1778011526 | 21.11° C | 61% | 1005.6 hPa | 0 mm | - | 498 W/m² | - |
| 1778011407 | 21.11° C | 60% | 1005.6 hPa | 0 mm | - | 491 W/m² | - |
| 1778011163 | 21.11° C | 62% | 1005.7 hPa | 0 mm | - | 525 W/m² | - |
| 1778010563 | 21.67° C | 60% | 1005.8 hPa | 0 mm | - | 217 W/m² | - |
| 1778010203 | 21.11° C | 60% | 1005.9 hPa | 0 mm | - | 293 W/m² | - |
| 1778009723 | 21.11° C | 61% | 1005.9 hPa | 0 mm | - | 389 W/m² | - |
| 1778009603 | 21.11° C | 61% | 1006 hPa | 0 mm | - | 355 W/m² | - |
| 1778009362 | 20.56° C | 62% | 1006.1 hPa | 0 mm | - | 302 W/m² | - |
| 1778009002 | 20.56° C | 62% | 1006.2 hPa | 0 mm | - | 695 W/m² | - |
| 1778008882 | 20.56° C | 63% | 1006.3 hPa | 0 mm | - | 672 W/m² | - |
| 1778008642 | 20.56° C | 62% | 1006.3 hPa | 0 mm | - | 442 W/m² | - |
| 1778008521 | 20.56° C | 62% | 1006.5 hPa | 0 mm | - | 230 W/m² | - |
| 1778008402 | 20.56° C | 63% | 1006.5 hPa | 0 mm | - | 474 W/m² | - |
| 1778008282 | 20.56° C | 63% | 1006.4 hPa | 0 mm | - | 632 W/m² | - |
| 1778006715 | 21.11° C | 63% | 1006.9 hPa | 0 mm | - | 248 W/m² | - |
* Rain latest hour (hover to see other rain measurements)
** Current wind speed in m/s (hover to see current wind gust speed)